Guest (not logged in) | Log in

Project information

Duration: 2018-12-20 00:00 onwards
Historical data from: 1995-01-01
Position: 0° 0' 0.00" N
0° 0' 0.00" E
0 m A.S.L
Contact: Carsten Weber Kock
Description: Zephir 317 måler vind i Roskilde

Measurements

NameHeight [m]DurationLatest (2019-03-23 23:50)
Dir_100m 0.00 2018-12-20 14:20 onwards 289.56 Deg
Dir_10m 0.00 2018-12-20 14:20 onwards 288.02 Deg
Dir_125m 0.00 2018-12-20 14:20 onwards 291.19 Deg
Dir_150m 0.00 2018-12-20 14:20 onwards 292.88 Deg
Dir_200m 0.00 2018-12-20 14:20 onwards 297.89 Deg
Dir_20m 0.00 2018-12-20 14:20 onwards 285.62 Deg
Dir_30m 0.00 2018-12-20 14:20 onwards 284.60 Deg
Dir_38m 0.00 2018-12-20 14:20 onwards 285.27 Deg
Dir_50m 0.00 2018-12-20 14:20 onwards 284.86 Deg
Dir_60m 0.00 2018-12-20 14:20 onwards 285.71 Deg
Dir_800m 0.00 2018-12-20 14:20 onwards 305.05 Deg
Dir_80m 0.00 2018-12-20 14:20 onwards 288.02 Deg
Humidity 0.00 2018-12-20 14:20 onwards 26.70 %
MetDir 0.00 2018-12-20 14:20 onwards 266.45 Deg
Metwsp 0.00 2018-12-20 14:20 onwards 2.42 m/s
Pressure 0.00 2018-12-20 14:20 onwards 1020.10 mbar
Temp 0.00 2018-12-20 14:20 onwards 2.00 DegC
TI_100m 0.00 2018-12-20 14:20 onwards 0.04 -
TI_10m 0.00 2018-12-20 14:20 onwards 0.16 -
TI_125m 0.00 2018-12-20 14:20 onwards 0.03 -
TI_150m 0.00 2018-12-20 14:20 onwards 0.03 -
TI_200m 0.00 2018-12-20 14:20 onwards 0.02 -
TI_20m 0.00 2018-12-20 14:20 onwards 0.18 -
TI_30m 0.00 2018-12-20 14:20 onwards 0.17 -
TI_38m 0.00 2018-12-20 14:20 onwards 0.11 -
TI_50m 0.00 2018-12-20 14:20 onwards 0.09 -
TI_60m 0.00 2018-12-20 14:20 onwards 0.06 -
TI_800m 0.00 2018-12-20 14:20 onwards 0.01 -
TI_80m 0.00 2018-12-20 14:20 onwards 0.05 -
Vert_100m 0.00 2018-12-20 14:20 onwards -0.11 m/s
Vert_10m 0.00 2018-12-20 14:20 onwards 0.05 m/s
Vert_125m 0.00 2018-12-20 14:20 onwards -0.07 m/s
Vert_150m 0.00 2018-12-20 14:20 onwards -0.11 m/s
Vert_200m 0.00 2018-12-20 14:20 onwards -0.18 m/s
Vert_20m 0.00 2018-12-20 14:20 onwards -0.07 m/s
Vert_30m 0.00 2018-12-20 14:20 onwards -0.14 m/s
Vert_38m 0.00 2018-12-20 14:20 onwards 0.02 m/s
Vert_50m 0.00 2018-12-20 14:20 onwards -0.17 m/s
Vert_60m 0.00 2018-12-20 14:20 onwards -0.16 m/s
Vert_800m 0.00 2018-12-20 14:20 onwards -0.24 m/s
Vert_80m 0.00 2018-12-20 14:20 onwards -0.13 m/s
Wsp_100m 0.00 2018-12-20 14:20 onwards 10.23 m/s
Wsp_10m 0.00 2018-12-20 14:20 onwards 4.73 m/s
Wsp_125m 0.00 2018-12-20 14:20 onwards 11.33 m/s
Wsp_150m 0.00 2018-12-20 14:20 onwards 12.16 m/s
Wsp_200m 0.00 2018-12-20 14:20 onwards 13.61 m/s
Wsp_20m 0.00 2018-12-20 14:20 onwards 5.04 m/s
Wsp_30m 0.00 2018-12-20 14:20 onwards 5.70 m/s
Wsp_38m 0.00 2018-12-20 14:20 onwards 6.38 m/s
Wsp_50m 0.00 2018-12-20 14:20 onwards 7.29 m/s
Wsp_60m 0.00 2018-12-20 14:20 onwards 7.86 m/s
Wsp_800m 0.00 2018-12-20 14:20 onwards 14.46 m/s
Wsp_80m 0.00 2018-12-20 14:20 onwards 9.06 m/s
Comments and help requests to webmaster
© 2019